GFSMW_prec_precacc12_078.txt.gz
Total_Precipitation_Accumulation
0.64 0.82 0.51 0.45 0.44 0.28 0.29 0.15 0.15 0.18 0.20 0.26 0.22 0.25 0.17 0.15 0.11 0.08 0.10 0.16 0.21 0.17 0.13 0.07 0.01 0.00 0.00 0.00 0.00 0.00 0.00 0.00 0.00 0.02 0.00 0.00 0.00 0.00 0.00 0.00 0.00 0.00 0.00
0.31 0.51 0.89 0.41 0.42 0.86 1.09 0.73 0.44 0.33 0.22 0.16 0.10 0.11 0.19 0.20 0.13 0.13 0.12 0.17 0.24 0.25 0.19 0.14 0.13 0.06 0.02 0.01 0.01 0.01 0.03 0.03 0.03 0.02 0.00 0.00 0.00 0.00 0.00 0.00 0.00 0.00 0.00
0.09 0.16 0.35 0.19 0.26 0.63 0.84 0.57 0.35 0.38 0.56 0.48 0.73 0.64 0.59 0.45 0.45 0.36 0.27 0.27 0.22 0.27 0.39 0.41 0.37 0.31 0.25 0.22 0.22 0.21 0.20 0.14 0.07 0.01 0.01 0.01 0.00 0.00 0.00 0.00 0.00 0.00 0.00
0.03 0.03 0.03 0.04 0.03 0.05 0.13 0.34 0.58 0.65 0.82 0.90 1.19 1.49 1.77 1.69 1.41 1.28 1.04 0.78 0.65 0.69 0.94 1.14 1.20 1.07 0.77 0.54 0.38 0.30 0.20 0.16 0.11 0.06 0.02 0.01 0.00 0.00 0.00 0.00 0.00 0.00 0.00
0.01 0.00 0.00 0.00 0.00 0.00 0.00 0.06 0.12 0.23 0.39 0.51 0.49 0.72 0.94 0.97 0.86 0.74 0.73 0.78 0.80 0.76 0.84 1.04 1.06 0.83 0.63 0.63 0.53 0.22 0.07 0.03 0.02 0.01 0.00 0.00 0.00 0.00 0.00 0.00 0.00 0.00 0.00
0.01 0.00 0.00 0.00 0.00 0.00 0.00 0.00 0.00 0.01 0.13 0.21 0.24 0.42 0.58 0.68 0.63 0.52 0.48 0.49 0.41 0.42 0.48 0.49 0.47 0.43 0.32 0.28 0.32 0.31 0.16 0.04 0.01 0.01 0.00 0.00 0.00 0.00 0.00 0.00 0.00 0.00 0.00
0.00 0.00 0.00 0.00 0.00 0.00 0.00 0.00 0.00 0.00 0.03 0.11 0.17 0.27 0.27 0.25 0.25 0.30 0.32 0.36 0.33 0.28 0.29 0.28 0.27 0.26 0.25 0.22 0.19 0.18 0.19 0.12 0.04 0.01 0.00 0.00 0.00 0.00 0.00 0.00 0.00 0.00 0.00
0.00 0.00 0.00 0.00 0.00 0.00 0.00 0.00 0.00 0.00 0.00 0.04 0.07 0.05 0.13 0.14 0.17 0.23 0.24 0.22 0.25 0.29 0.39 0.50 0.46 0.37 0.33 0.34 0.30 0.18 0.09 0.07 0.06 0.02 0.00 0.00 0.00 0.00 0.00 0.00 0.01 0.02 0.01
0.00 0.00 0.00 0.00 0.00 0.00 0.00 0.00 0.00 0.00 0.00 0.00 0.00 0.00 0.02 0.06 0.09 0.09 0.09 0.10 0.14 0.17 0.18 0.14 0.12 0.10 0.08 0.08 0.08 0.08 0.06 0.04 0.02 0.00 0.00 0.00 0.00 0.00 0.00 0.01 0.03 0.06 0.04
0.00 0.00 0.00 0.00 0.00 0.00 0.00 0.00 0.00 0.00 0.00 0.00 0.00 0.00 0.00 0.00 0.01 0.02 0.03 0.04 0.03 0.02 0.02 0.01 0.00 0.00 0.00 0.00 0.00 0.00 0.00 0.00 0.00 0.00 0.00 0.00 0.00 0.00 0.00 0.00 0.01 0.03 0.05
0.00 0.00 0.00 0.00 0.00 0.00 0.00 0.00 0.00 0.00 0.00 0.00 0.00 0.00 0.00 0.00 0.00 0.00 0.00 0.00 0.00 0.00 0.00 0.00 0.00 0.00 0.00 0.00 0.00 0.00 0.00 0.00 0.00 0.00 0.00 0.00 0.00 0.00 0.00 0.00 0.01 0.01 0.01
0.00 0.00 0.00 0.00 0.00 0.00 0.00 0.00 0.00 0.00 0.00 0.00 0.00 0.00 0.00 0.00 0.00 0.00 0.00 0.00 0.00 0.00 0.00 0.01 0.00 0.00 0.00 0.00 0.00 0.00 0.00 0.00 0.00 0.00 0.00 0.00 0.00 0.00 0.00 0.00 0.00 0.00 0.00
0.00 0.00 0.00 0.00 0.00 0.00 0.00 0.00 0.00 0.00 0.00 0.00 0.00 0.00 0.00 0.00 0.00 0.00 0.00 0.00 0.00 0.00 0.00 0.00 0.00 0.00 0.00 0.00 0.00 0.00 0.00 0.00 0.00 0.00 0.00 0.00 0.00 0.00 0.00 0.00 0.01 0.01 0.00
0.00 0.00 0.00 0.00 0.00 0.00 0.00 0.00 0.00 0.00 0.00 0.00 0.00 0.00 0.00 0.00 0.00 0.00 0.00 0.00 0.00 0.00 0.00 0.00 0.00 0.00 0.00 0.00 0.00 0.00 0.00 0.00 0.00 0.00 0.00 0.00 0.00 0.00 0.01 0.01 0.01 0.01 0.00
0.00 0.00 0.00 0.00 0.00 0.00 0.00 0.00 0.00 0.00 0.00 0.00 0.00 0.00 0.00 0.00 0.00 0.00 0.00 0.00 0.00 0.00 0.00 0.00 0.00 0.00 0.00 0.00 0.00 0.00 0.00 0.00 0.00 0.00 0.00 0.00 0.02 0.02 0.01 0.01 0.00 0.00 0.01
0.00 0.00 0.00 0.00 0.00 0.00 0.00 0.00 0.00 0.00 0.00 0.00 0.00 0.00 0.00 0.00 0.00 0.00 0.00 0.00 0.00 0.00 0.00 0.00 0.00 0.00 0.00 0.00 0.00 0.00 0.00 0.00 0.00 0.00 0.00 0.01 0.02 0.01 0.02 0.01 0.01 0.00 0.00
0.00 0.00 0.00 0.00 0.00 0.00 0.00 0.00 0.00 0.00 0.00 0.00 0.00 0.00 0.00 0.00 0.00 0.00 0.00 0.00 0.00 0.00 0.00 0.00 0.00 0.00 0.00 0.00 0.00 0.00 0.00 0.00 0.00 0.00 0.00 0.01 0.01 0.02 0.00 0.01 0.01 0.00 0.00
0.00 0.00 0.00 0.00 0.00 0.00 0.00 0.00 0.00 0.00 0.00 0.00 0.00 0.00 0.00 0.00 0.00 0.00 0.00 0.00 0.00 0.00 0.00 0.00 0.00 0.00 0.00 0.00 0.00 0.00 0.00 0.00 0.00 0.00 0.00 0.00 0.00 0.01 0.00 0.00 0.00 0.00 0.00
0.00 0.00 0.00 0.00 0.00 0.00 0.00 0.00 0.00 0.00 0.00 0.00 0.00 0.00 0.00 0.00 0.00 0.00 0.00 0.00 0.00 0.00 0.00 0.00 0.00 0.00 0.00 0.00 0.00 0.00 0.00 0.00 0.00 0.00 0.00 0.00 0.00 0.01 0.00 0.00 0.00 0.00 0.00
0.00 0.00 0.00 0.00 0.00 0.00 0.00 0.00 0.00 0.00 0.00 0.00 0.00 0.00 0.00 0.00 0.00 0.00 0.00 0.00 0.00 0.00 0.00 0.00 0.00 0.00 0.00 0.00 0.00 0.00 0.00 0.00 0.00 0.00 0.00 0.01 0.00 0.00 0.00 0.00 0.00 0.00 0.00
0.00 0.00 0.00 0.00 0.00 0.00 0.00 0.00 0.00 0.00 0.00 0.00 0.00 0.00 0.00 0.00 0.00 0.00 0.00 0.00 0.00 0.00 0.00 0.00 0.00 0.00 0.00 0.00 0.00 0.01 0.00 0.00 0.00 0.00 0.00 0.00 0.00 0.00 0.00 0.00 0.00 0.00 0.00
0.00 0.00 0.00 0.00 0.00 0.00 0.00 0.00 0.00 0.00 0.00 0.00 0.00 0.00 0.00 0.00 0.00 0.00 0.00 0.00 0.00 0.00 0.00 0.00 0.00 0.00 0.00 0.00 0.00 0.01 0.00 0.00 0.00 0.00 0.01 0.00 0.00 0.00 0.00 0.00 0.00 0.00 0.00
0.00 0.00 0.00 0.00 0.00 0.00 0.00 0.00 0.00 0.00 0.00 0.00 0.00 0.00 0.00 0.00 0.00 0.00 0.00 0.00 0.00 0.00 0.00 0.00 0.00 0.00 0.00 0.00 0.01 0.00 0.01 0.00 0.00 0.00 0.00 0.00 0.00 0.00 0.00 0.00 0.00 0.00 0.00
0.00 0.00 0.00 0.00 0.00 0.00 0.00 0.00 0.00 0.00 0.00 0.00 0.00 0.00 0.00 0.00 0.00 0.00 0.00 0.00 0.00 0.01 0.02 0.02 0.03 0.02 0.01 0.01 0.00 0.00 0.00 0.00 0.00 0.00 0.00 0.00 0.00 0.00 0.00 0.00 0.00 0.00 0.00
0.00 0.00 0.00 0.00 0.00 0.00 0.00 0.00 0.00 0.00 0.00 0.00 0.00 0.00 0.00 0.00 0.00 0.01 0.02 0.01 0.01 0.03 0.02 0.01 0.02 0.03 0.02 0.01 0.02 0.01 0.00 0.00 0.00 0.00 0.00 0.00 0.00 0.00 0.00 0.00 0.00 0.00 0.00
0.00 0.00 0.00 0.00 0.00 0.00 0.00 0.00 0.00 0.00 0.00 0.00 0.00 0.01 0.02 0.02 0.03 0.04 0.04 0.07 0.05 0.06 0.05 0.04 0.03 0.02 0.03 0.04 0.04 0.02 0.01 0.02 0.02 0.01 0.00 0.00 0.00 0.00 0.00 0.00 0.00 0.00 0.00

GFSMW_prec_precacc12_084.txt.gz
Total_Precipitation_Accumulation
0.94 1.07 0.62 0.43 0.52 0.26 0.08 0.07 0.06 0.08 0.11 0.20 0.26 0.27 0.38 0.37 0.25 0.14 0.20 0.20 0.31 0.27 0.17 0.10 0.05 0.02 0.00 0.00 0.00 0.00 0.00 0.00 0.00 0.02 0.01 0.00 0.00 0.00 0.00 0.00 0.00 0.00 0.00
0.70 1.13 1.50 0.67 0.60 0.98 0.73 0.53 0.38 0.38 0.35 0.42 0.37 0.19 0.26 0.30 0.26 0.24 0.17 0.23 0.29 0.31 0.24 0.20 0.20 0.13 0.10 0.04 0.02 0.02 0.03 0.03 0.04 0.03 0.03 0.01 0.00 0.00 0.00 0.00 0.00 0.00 0.00
0.24 0.71 1.55 1.18 1.02 1.30 1.25 0.86 0.84 0.63 0.49 0.32 0.49 0.43 0.40 0.38 0.41 0.37 0.38 0.39 0.30 0.27 0.32 0.35 0.31 0.31 0.35 0.43 0.41 0.37 0.33 0.26 0.21 0.16 0.09 0.02 0.00 0.00 0.00 0.00 0.00 0.00 0.00
0.16 0.29 0.60 1.08 1.09 0.52 0.47 0.77 1.12 0.99 0.60 0.59 0.83 1.14 1.39 1.39 1.17 1.04 0.82 0.66 0.54 0.52 0.69 0.83 0.87 0.87 0.76 0.62 0.71 0.72 0.59 0.61 0.54 0.47 0.27 0.15 0.06 0.00 0.00 0.00 0.00 0.00 0.00
0.18 0.21 0.33 0.50 0.39 0.27 0.27 0.30 0.36 0.42 0.56 0.73 0.74 0.88 0.90 0.93 0.82 0.69 0.62 0.60 0.65 0.58 0.56 0.66 0.76 0.72 0.77 0.89 0.89 0.85 0.91 0.89 0.70 0.61 0.46 0.28 0.12 0.05 0.01 0.00 0.00 0.00 0.00
0.08 0.25 0.19 0.21 0.18 0.16 0.16 0.13 0.13 0.22 0.44 0.41 0.40 0.64 0.93 1.08 0.97 0.71 0.60 0.54 0.42 0.40 0.46 0.47 0.50 0.52 0.46 0.47 0.62 0.75 0.76 0.69 0.71 0.72 0.63 0.43 0.25 0.15 0.08 0.07 0.05 0.01 0.00
0.05 0.12 0.26 0.12 0.07 0.05 0.02 0.01 0.01 0.03 0.17 0.19 0.25 0.37 0.35 0.48 0.30 0.30 0.23 0.14 0.17 0.16 0.16 0.21 0.30 0.36 0.38 0.36 0.37 0.39 0.42 0.44 0.44 0.42 0.45 0.46 0.39 0.33 0.25 0.13 0.05 0.01 0.00
0.07 0.05 0.12 0.10 0.03 0.01 0.00 0.00 0.00 0.00 0.00 0.01 0.06 0.09 0.21 0.32 0.19 0.16 0.13 0.12 0.08 0.11 0.15 0.22 0.34 0.38 0.38 0.40 0.38 0.39 0.35 0.31 0.28 0.27 0.24 0.22 0.19 0.13 0.06 0.02 0.01 0.00 0.00
0.16 0.06 0.04 0.02 0.01 0.00 0.00 0.00 0.00 0.00 0.00 0.00 0.00 0.00 0.01 0.01 0.10 0.15 0.10 0.12 0.10 0.12 0.19 0.29 0.22 0.17 0.13 0.13 0.15 0.15 0.13 0.08 0.05 0.05 0.04 0.03 0.02 0.01 0.00 0.00 0.01 0.01 0.01
0.10 0.04 0.01 0.01 0.00 0.00 0.00 0.00 0.00 0.00 0.00 0.00 0.00 0.00 0.00 0.00 0.00 0.00 0.00 0.01 0.03 0.03 0.04 0.04 0.02 0.01 0.01 0.02 0.03 0.03 0.04 0.02 0.05 0.03 0.00 0.00 0.00 0.00 0.00 0.00 0.01 0.01 0.02
0.01 0.00 0.00 0.00 0.00 0.00 0.00 0.00 0.00 0.00 0.00 0.00 0.00 0.00 0.00 0.00 0.00 0.00 0.00 0.00 0.00 0.00 0.00 0.00 0.00 0.01 0.01 0.01 0.02 0.02 0.02 0.02 0.02 0.00 0.00 0.00 0.00 0.00 0.00 0.00 0.00 0.00 0.00
0.00 0.00 0.00 0.00 0.00 0.00 0.00 0.00 0.00 0.00 0.00 0.00 0.00 0.00 0.00 0.00 0.00 0.00 0.00 0.00 0.00 0.00 0.00 0.01 0.01 0.02 0.04 0.04 0.03 0.03 0.02 0.01 0.00 0.00 0.00 0.00 0.00 0.00 0.00 0.00 0.00 0.00 0.00
0.00 0.00 0.00 0.00 0.00 0.00 0.00 0.00 0.00 0.00 0.00 0.00 0.00 0.00 0.00 0.00 0.00 0.00 0.00 0.00 0.00 0.00 0.00 0.00 0.03 0.04 0.03 0.03 0.03 0.02 0.01 0.00 0.00 0.00 0.00 0.00 0.00 0.00 0.00 0.00 0.00 0.00 0.00
0.00 0.00 0.00 0.00 0.00 0.00 0.00 0.00 0.00 0.00 0.00 0.00 0.00 0.00 0.00 0.00 0.00 0.00 0.00 0.00 0.00 0.00 0.00 0.00 0.00 0.01 0.02 0.02 0.02 0.01 0.01 0.00 0.00 0.00 0.00 0.00 0.00 0.00 0.00 0.00 0.00 0.00 0.00
0.00 0.00 0.00 0.00 0.00 0.00 0.00 0.00 0.00 0.00 0.00 0.00 0.00 0.00 0.00 0.00 0.00 0.00 0.00 0.00 0.00 0.00 0.00 0.00 0.00 0.00 0.00 0.00 0.01 0.01 0.01 0.01 0.00 0.00 0.00 0.00 0.00 0.00 0.00 0.00 0.00 0.00 0.00
0.00 0.00 0.00 0.00 0.00 0.00 0.00 0.00 0.00 0.00 0.00 0.00 0.00 0.00 0.00 0.00 0.00 0.00 0.00 0.00 0.00 0.00 0.00 0.00 0.00 0.00 0.00 0.00 0.00 0.00 0.00 0.00 0.00 0.00 0.00 0.00 0.00 0.00 0.00 0.01 0.01 0.00 0.00
0.00 0.00 0.00 0.00 0.00 0.00 0.00 0.00 0.00 0.00 0.00 0.00 0.00 0.00 0.00 0.00 0.00 0.00 0.00 0.00 0.00 0.00 0.00 0.00 0.00 0.00 0.00 0.00 0.00 0.00 0.00 0.00 0.00 0.00 0.00 0.00 0.00 0.00 0.00 0.00 0.00 0.00 0.00
0.00 0.00 0.00 0.00 0.00 0.00 0.00 0.00 0.00 0.00 0.00 0.00 0.00 0.00 0.00 0.00 0.00 0.00 0.00 0.00 0.00 0.00 0.00 0.00 0.00 0.00 0.00 0.00 0.00 0.00 0.00 0.00 0.00 0.00 0.00 0.00 0.00 0.00 0.00 0.00 0.00 0.00 0.00
0.00 0.00 0.00 0.00 0.00 0.00 0.00 0.00 0.00 0.00 0.00 0.00 0.00 0.00 0.00 0.00 0.00 0.00 0.00 0.00 0.00 0.00 0.00 0.00 0.00 0.00 0.00 0.00 0.00 0.00 0.00 0.00 0.00 0.00 0.00 0.00 0.00 0.01 0.01 0.00 0.00 0.00 0.00
0.00 0.00 0.00 0.00 0.00 0.00 0.00 0.00 0.00 0.00 0.00 0.00 0.00 0.00 0.00 0.00 0.00 0.00 0.00 0.00 0.00 0.00 0.00 0.00 0.00 0.00 0.00 0.00 0.00 0.00 0.00 0.00 0.00 0.00 0.00 0.00 0.00 0.01 0.00 0.00 0.00 0.00 0.00
0.00 0.00 0.00 0.00 0.00 0.00 0.00 0.00 0.00 0.00 0.00 0.00 0.00 0.00 0.00 0.00 0.00 0.00 0.00 0.00 0.00 0.00 0.00 0.00 0.00 0.00 0.00 0.00 0.00 0.00 0.00 0.00 0.00 0.00 0.00 0.00 0.00 0.00 0.00 0.00 0.00 0.00 0.00
0.00 0.00 0.00 0.00 0.00 0.00 0.00 0.00 0.00 0.00 0.00 0.00 0.00 0.00 0.00 0.00 0.00 0.00 0.00 0.00 0.00 0.00 0.00 0.00 0.00 0.00 0.00 0.00 0.00 0.01 0.01 0.00 0.00 0.00 0.00 0.00 0.00 0.00 0.00 0.01 0.00 0.00 0.00
0.00 0.00 0.00 0.00 0.00 0.00 0.00 0.00 0.00 0.00 0.00 0.00 0.00 0.00 0.00 0.00 0.00 0.00 0.00 0.00 0.00 0.00 0.00 0.00 0.00 0.00 0.00 0.00 0.03 0.03 0.03 0.03 0.01 0.00 0.00 0.00 0.00 0.00 0.00 0.01 0.00 0.00 0.00
0.00 0.00 0.00 0.00 0.00 0.00 0.00 0.00 0.00 0.00 0.00 0.00 0.00 0.00 0.00 0.00 0.00 0.00 0.00 0.00 0.00 0.01 0.02 0.02 0.03 0.03 0.04 0.05 0.05 0.07 0.07 0.06 0.03 0.01 0.01 0.01 0.00 0.00 0.00 0.00 0.00 0.00 0.00
0.00 0.00 0.00 0.00 0.00 0.00 0.00 0.00 0.00 0.00 0.00 0.00 0.00 0.00 0.00 0.00 0.00 0.01 0.02 0.01 0.01 0.03 0.02 0.01 0.02 0.04 0.05 0.07 0.15 0.16 0.13 0.13 0.16 0.16 0.09 0.04 0.01 0.00 0.00 0.00 0.00 0.00 0.00
0.00 0.00 0.00 0.00 0.00 0.00 0.00 0.00 0.00 0.00 0.00 0.00 0.00 0.00 0.00 0.00 0.01 0.02 0.03 0.06 0.05 0.05 0.06 0.05 0.04 0.03 0.05 0.08 0.13 0.14 0.15 0.17 0.21 0.20 0.12 0.07 0.03 0.00 0.00 0.00 0.00 0.00 0.00

GFSMW_prec_precacc12_090.txt.gz
Total_Precipitation_Accumulation
0.36 0.39 0.33 0.24 0.31 0.29 0.17 0.11 0.05 0.07 0.10 0.20 0.24 0.34 0.61 0.88 1.04 0.78 0.45 0.20 0.20 0.17 0.08 0.03 0.04 0.02 0.00 0.00 0.00 0.00 0.00 0.00 0.00 0.00 0.00 0.00 0.00 0.00 0.00 0.00 0.00 0.00 0.00
0.55 0.74 0.74 0.40 0.30 0.38 0.29 0.23 0.20 0.23 0.26 0.40 0.40 0.26 0.38 0.60 0.87 1.01 0.79 0.63 0.38 0.21 0.14 0.10 0.07 0.07 0.12 0.05 0.03 0.02 0.00 0.01 0.01 0.01 0.03 0.01 0.00 0.00 0.00 0.00 0.00 0.00 0.00
0.37 0.76 1.39 1.10 0.87 0.90 0.69 0.64 0.76 0.59 0.42 0.37 0.33 0.27 0.27 0.38 0.64 0.86 0.89 0.92 0.81 0.55 0.36 0.23 0.12 0.09 0.28 0.47 0.41 0.33 0.26 0.23 0.20 0.17 0.12 0.04 0.01 0.01 0.00 0.00 0.00 0.00 0.00
0.24 0.41 0.74 1.13 1.29 0.76 0.58 0.80 1.45 1.59 0.50 0.40 0.75 0.69 0.35 0.38 0.40 0.61 0.52 0.50 0.54 0.48 0.39 0.38 0.34 0.38 0.47 0.43 0.55 0.59 0.55 0.62 0.63 0.62 0.41 0.29 0.20 0.13 0.06 0.02 0.01 0.01 0.00
0.21 0.25 0.43 0.65 0.52 0.40 0.41 0.47 0.79 1.44 1.28 0.91 1.30 1.22 0.83 0.52 0.44 0.46 0.47 0.37 0.46 0.48 0.39 0.23 0.24 0.30 0.42 0.47 0.53 0.74 0.91 0.89 0.69 0.62 0.51 0.44 0.38 0.42 0.34 0.16 0.08 0.05 0.03
0.13 0.29 0.22 0.28 0.32 0.38 0.46 0.41 0.51 0.80 1.45 1.23 1.12 0.97 1.04 1.16 0.92 0.59 0.54 0.49 0.39 0.36 0.39 0.29 0.23 0.25 0.31 0.33 0.43 0.57 0.67 0.69 0.71 0.72 0.64 0.51 0.44 0.43 0.49 0.41 0.25 0.17 0.11
0.27 0.29 0.40 0.36 0.37 0.40 0.29 0.25 0.43 0.55 0.75 0.69 0.64 0.77 0.57 0.76 0.59 0.43 0.28 0.19 0.17 0.13 0.12 0.12 0.15 0.18 0.21 0.23 0.26 0.26 0.29 0.39 0.44 0.43 0.47 0.51 0.51 0.53 0.54 0.51 0.36 0.19 0.10
0.49 0.31 0.33 0.37 0.34 0.18 0.11 0.09 0.15 0.14 0.14 0.16 0.29 0.40 0.51 0.73 0.62 0.45 0.30 0.23 0.10 0.07 0.06 0.04 0.05 0.06 0.07 0.08 0.11 0.25 0.33 0.35 0.37 0.43 0.38 0.35 0.32 0.30 0.25 0.22 0.21 0.16 0.11
0.62 0.37 0.23 0.27 0.22 0.07 0.03 0.02 0.03 0.02 0.01 0.00 0.01 0.02 0.06 0.10 0.21 0.29 0.32 0.41 0.42 0.22 0.22 0.34 0.34 0.23 0.16 0.11 0.10 0.09 0.10 0.10 0.09 0.10 0.10 0.12 0.16 0.16 0.06 0.04 0.07 0.14 0.08
0.52 0.33 0.19 0.18 0.09 0.01 0.00 0.00 0.00 0.00 0.00 0.00 0.00 0.00 0.00 0.01 0.03 0.05 0.05 0.07 0.16 0.19 0.15 0.20 0.25 0.23 0.17 0.12 0.10 0.10 0.13 0.09 0.09 0.12 0.15 0.14 0.12 0.12 0.06 0.08 0.09 0.02 0.01
0.28 0.12 0.09 0.06 0.03 0.00 0.00 0.00 0.00 0.00 0.00 0.00 0.00 0.00 0.00 0.00 0.00 0.00 0.00 0.00 0.00 0.00 0.00 0.00 0.00 0.01 0.02 0.02 0.02 0.03 0.04 0.05 0.05 0.08 0.13 0.19 0.23 0.27 0.13 0.08 0.07 0.02 0.00
0.04 0.02 0.01 0.00 0.00 0.00 0.00 0.00 0.00 0.00 0.00 0.00 0.00 0.00 0.00 0.00 0.00 0.00 0.00 0.00 0.00 0.00 0.00 0.00 0.01 0.02 0.04 0.04 0.04 0.04 0.04 0.05 0.05 0.07 0.08 0.05 0.06 0.14 0.16 0.05 0.01 0.00 0.00
0.00 0.00 0.00 0.00 0.00 0.00 0.00 0.00 0.00 0.00 0.00 0.00 0.00 0.00 0.00 0.00 0.00 0.00 0.00 0.00 0.00 0.00 0.00 0.00 0.02 0.04 0.03 0.03 0.03 0.03 0.02 0.02 0.03 0.06 0.07 0.07 0.05 0.05 0.04 0.02 0.00 0.00 0.00
0.00 0.00 0.00 0.00 0.00 0.00 0.00 0.00 0.00 0.00 0.00 0.00 0.00 0.00 0.00 0.00 0.00 0.00 0.00 0.00 0.00 0.00 0.00 0.00 0.00 0.01 0.02 0.02 0.02 0.02 0.03 0.02 0.03 0.05 0.04 0.05 0.04 0.04 0.06 0.02 0.00 0.00 0.00
0.00 0.00 0.00 0.00 0.00 0.00 0.00 0.00 0.00 0.00 0.00 0.00 0.00 0.00 0.00 0.00 0.00 0.00 0.00 0.00 0.00 0.00 0.00 0.00 0.00 0.00 0.00 0.00 0.01 0.01 0.02 0.03 0.03 0.03 0.03 0.04 0.04 0.04 0.05 0.01 0.00 0.00 0.00
0.00 0.00 0.00 0.00 0.00 0.00 0.00 0.00 0.00 0.00 0.00 0.00 0.00 0.00 0.00 0.00 0.00 0.00 0.00 0.00 0.00 0.00 0.00 0.00 0.00 0.00 0.00 0.00 0.00 0.00 0.01 0.01 0.02 0.03 0.03 0.03 0.06 0.03 0.02 0.01 0.00 0.00 0.00
0.00 0.00 0.00 0.00 0.00 0.00 0.00 0.00 0.00 0.00 0.00 0.00 0.00 0.00 0.00 0.00 0.00 0.00 0.00 0.00 0.00 0.00 0.00 0.00 0.00 0.00 0.00 0.00 0.00 0.00 0.00 0.00 0.00 0.00 0.00 0.00 0.00 0.01 0.02 0.04 0.04 0.02 0.01
0.00 0.00 0.00 0.00 0.00 0.00 0.00 0.00 0.00 0.00 0.00 0.00 0.00 0.00 0.00 0.00 0.00 0.00 0.00 0.00 0.00 0.00 0.00 0.00 0.00 0.00 0.00 0.00 0.00 0.00 0.00 0.00 0.00 0.00 0.00 0.00 0.00 0.00 0.00 0.00 0.01 0.01 0.01
0.00 0.00 0.00 0.00 0.00 0.00 0.00 0.00 0.00 0.00 0.00 0.00 0.00 0.00 0.00 0.00 0.00 0.00 0.00 0.00 0.00 0.00 0.00 0.00 0.00 0.00 0.00 0.00 0.00 0.00 0.00 0.00 0.00 0.00 0.00 0.00 0.00 0.00 0.00 0.00 0.00 0.00 0.00
0.00 0.00 0.00 0.00 0.00 0.00 0.00 0.00 0.00 0.00 0.00 0.00 0.00 0.00 0.00 0.00 0.00 0.00 0.00 0.00 0.00 0.00 0.00 0.00 0.00 0.00 0.00 0.00 0.00 0.00 0.00 0.00 0.00 0.00 0.00 0.00 0.00 0.00 0.00 0.00 0.00 0.00 0.00
0.00 0.00 0.00 0.00 0.00 0.00 0.00 0.00 0.00 0.00 0.00 0.00 0.00 0.00 0.00 0.00 0.00 0.00 0.00 0.00 0.00 0.00 0.00 0.00 0.00 0.00 0.00 0.00 0.00 0.00 0.00 0.00 0.00 0.00 0.00 0.00 0.00 0.00 0.01 0.00 0.00 0.00 0.00
0.00 0.00 0.00 0.00 0.00 0.00 0.00 0.00 0.00 0.00 0.00 0.00 0.00 0.00 0.00 0.00 0.00 0.00 0.00 0.00 0.00 0.00 0.00 0.00 0.00 0.00 0.00 0.00 0.01 0.01 0.02 0.02 0.01 0.00 0.00 0.00 0.01 0.01 0.01 0.02 0.00 0.00 0.00
0.00 0.00 0.00 0.00 0.00 0.00 0.00 0.00 0.00 0.00 0.00 0.00 0.00 0.00 0.00 0.00 0.00 0.00 0.00 0.00 0.00 0.00 0.00 0.00 0.00 0.00 0.00 0.00 0.04 0.04 0.04 0.06 0.04 0.01 0.02 0.03 0.03 0.04 0.02 0.03 0.02 0.00 0.00
0.00 0.00 0.00 0.00 0.00 0.00 0.00 0.00 0.00 0.00 0.00 0.00 0.00 0.00 0.00 0.00 0.00 0.00 0.00 0.00 0.00 0.00 0.00 0.00 0.00 0.01 0.03 0.04 0.05 0.08 0.08 0.07 0.06 0.05 0.06 0.07 0.06 0.08 0.07 0.07 0.05 0.02 0.00
0.00 0.00 0.00 0.00 0.00 0.00 0.00 0.00 0.00 0.00 0.00 0.00 0.00 0.00 0.00 0.00 0.00 0.00 0.00 0.00 0.00 0.00 0.00 0.00 0.00 0.01 0.03 0.06 0.13 0.16 0.13 0.15 0.21 0.26 0.16 0.15 0.10 0.08 0.08 0.05 0.05 0.05 0.02
0.00 0.00 0.00 0.00 0.00 0.00 0.00 0.00 0.00 0.00 0.00 0.00 0.00 0.00 0.00 0.00 0.00 0.00 0.00 0.00 0.00 0.00 0.00 0.01 0.01 0.01 0.02 0.04 0.10 0.13 0.15 0.18 0.25 0.31 0.18 0.12 0.09 0.07 0.08 0.09 0.10 0.09 0.06

GFSMW_prec_precacc12_096.txt.gz
Total_Precipitation_Accumulation
0.01 0.03 0.08 0.10 0.12 0.23 0.16 0.07 0.02 0.01 0.01 0.05 0.05 0.16 0.31 0.58 0.84 0.67 0.39 0.21 0.12 0.07 0.07 0.08 0.09 0.11 0.04 0.04 0.06 0.04 0.02 0.00 0.00 0.00 0.00 0.00 0.00 0.00 0.00 0.00 0.00 0.00 0.00
0.17 0.11 0.13 0.13 0.14 0.18 0.17 0.10 0.05 0.03 0.05 0.11 0.10 0.11 0.18 0.41 0.72 0.85 0.72 0.67 0.57 0.39 0.20 0.13 0.09 0.06 0.08 0.03 0.02 0.03 0.02 0.00 0.00 0.00 0.00 0.00 0.00 0.00 0.00 0.00 0.00 0.00 0.00
0.31 0.28 0.24 0.14 0.13 0.20 0.15 0.20 0.17 0.10 0.12 0.15 0.13 0.08 0.09 0.21 0.62 0.92 0.82 0.82 0.79 0.69 0.72 0.57 0.35 0.16 0.14 0.19 0.19 0.17 0.12 0.11 0.06 0.03 0.03 0.02 0.01 0.01 0.01 0.01 0.00 0.00 0.00
0.19 0.23 0.22 0.12 0.26 0.31 0.23 0.31 0.70 0.93 0.23 0.18 0.46 0.44 0.15 0.15 0.22 0.78 0.84 0.59 0.59 0.57 0.56 0.58 0.70 0.64 0.44 0.29 0.24 0.23 0.23 0.24 0.27 0.27 0.21 0.19 0.16 0.13 0.07 0.03 0.02 0.01 0.01
0.10 0.10 0.15 0.17 0.15 0.16 0.16 0.24 0.53 1.17 1.02 0.62 1.01 1.11 0.78 0.36 0.29 0.48 0.93 0.91 0.78 0.61 0.55 0.49 0.52 0.59 0.57 0.55 0.44 0.32 0.28 0.24 0.19 0.16 0.15 0.22 0.31 0.41 0.34 0.16 0.08 0.05 0.03
0.07 0.06 0.06 0.10 0.16 0.24 0.33 0.31 0.43 0.69 1.21 1.26 1.18 1.15 1.13 1.12 0.83 0.75 1.04 1.06 0.86 0.83 0.70 0.58 0.48 0.47 0.50 0.50 0.53 0.46 0.31 0.28 0.26 0.24 0.19 0.20 0.30 0.34 0.47 0.36 0.21 0.16 0.11
0.25 0.23 0.29 0.39 0.47 0.49 0.33 0.38 0.50 0.54 0.69 0.88 0.96 0.79 0.63 0.92 1.22 1.02 1.09 1.38 1.40 1.06 0.90 0.70 0.58 0.47 0.42 0.41 0.36 0.35 0.30 0.29 0.24 0.22 0.21 0.22 0.26 0.28 0.36 0.44 0.34 0.19 0.10
0.46 0.41 0.60 0.73 0.80 0.56 0.50 0.32 0.36 0.26 0.24 0.25 0.36 0.48 0.48 0.68 0.78 0.68 0.80 0.87 0.89 0.96 0.78 0.57 0.46 0.38 0.35 0.34 0.32 0.29 0.34 0.38 0.40 0.40 0.36 0.32 0.28 0.31 0.31 0.30 0.31 0.27 0.18
0.66 0.58 0.56 0.78 0.69 0.46 0.39 0.30 0.19 0.17 0.07 0.03 0.07 0.13 0.18 0.19 0.24 0.34 0.45 0.58 0.83 0.75 0.72 0.65 0.62 0.50 0.39 0.28 0.25 0.24 0.22 0.28 0.33 0.26 0.22 0.23 0.23 0.26 0.23 0.21 0.27 0.43 0.46
0.77 0.71 0.60 0.57 0.42 0.20 0.09 0.05 0.02 0.01 0.00 0.00 0.00 0.00 0.00 0.02 0.06 0.09 0.10 0.13 0.24 0.36 0.40 0.47 0.50 0.50 0.53 0.56 0.50 0.37 0.34 0.30 0.24 0.26 0.31 0.29 0.25 0.26 0.26 0.27 0.28 0.20 0.19
0.59 0.48 0.41 0.25 0.08 0.01 0.00 0.00 0.00 0.00 0.00 0.00 0.00 0.00 0.00 0.00 0.00 0.00 0.00 0.00 0.00 0.01 0.02 0.03 0.05 0.06 0.09 0.19 0.31 0.36 0.34 0.31 0.28 0.34 0.43 0.47 0.50 0.54 0.47 0.39 0.38 0.37 0.26
0.27 0.21 0.11 0.03 0.00 0.00 0.00 0.00 0.00 0.00 0.00 0.00 0.00 0.00 0.00 0.00 0.00 0.00 0.00 0.00 0.00 0.00 0.00 0.00 0.00 0.00 0.00 0.00 0.01 0.02 0.03 0.05 0.07 0.11 0.14 0.14 0.17 0.24 0.29 0.31 0.25 0.27 0.41
0.00 0.00 0.00 0.00 0.00 0.00 0.00 0.00 0.00 0.00 0.00 0.00 0.00 0.00 0.00 0.00 0.00 0.00 0.00 0.00 0.00 0.00 0.00 0.00 0.00 0.00 0.00 0.00 0.00 0.01 0.01 0.02 0.04 0.07 0.08 0.08 0.07 0.08 0.08 0.10 0.15 0.16 0.16
0.00 0.00 0.00 0.00 0.00 0.00 0.00 0.00 0.00 0.00 0.00 0.00 0.00 0.00 0.00 0.00 0.00 0.00 0.00 0.00 0.00 0.00 0.00 0.00 0.00 0.00 0.00 0.00 0.00 0.01 0.02 0.02 0.03 0.05 0.04 0.05 0.05 0.06 0.10 0.15 0.17 0.21 0.22
0.00 0.00 0.00 0.00 0.00 0.00 0.00 0.00 0.00 0.00 0.00 0.00 0.00 0.00 0.00 0.00 0.00 0.00 0.00 0.00 0.00 0.00 0.00 0.00 0.00 0.00 0.00 0.00 0.00 0.00 0.01 0.02 0.03 0.03 0.03 0.04 0.08 0.10 0.10 0.09 0.08 0.12 0.16
0.00 0.00 0.00 0.00 0.00 0.00 0.00 0.00 0.00 0.00 0.00 0.00 0.00 0.00 0.00 0.00 0.00 0.00 0.00 0.00 0.00 0.00 0.00 0.00 0.00 0.00 0.00 0.00 0.00 0.00 0.00 0.01 0.02 0.03 0.03 0.04 0.08 0.05 0.07 0.07 0.09 0.08 0.07
0.00 0.00 0.00 0.00 0.00 0.00 0.00 0.00 0.00 0.00 0.00 0.00 0.00 0.00 0.00 0.00 0.00 0.00 0.00 0.00 0.00 0.00 0.00 0.00 0.00 0.00 0.00 0.00 0.00 0.00 0.00 0.00 0.00 0.00 0.00 0.00 0.01 0.02 0.03 0.09 0.13 0.11 0.11
0.00 0.00 0.00 0.00 0.00 0.00 0.00 0.00 0.00 0.00 0.00 0.00 0.00 0.00 0.00 0.00 0.00 0.00 0.00 0.00 0.00 0.00 0.00 0.00 0.00 0.00 0.00 0.00 0.00 0.00 0.00 0.00 0.00 0.00 0.00 0.00 0.00 0.00 0.00 0.00 0.02 0.04 0.09
0.00 0.00 0.00 0.00 0.00 0.00 0.00 0.00 0.00 0.00 0.00 0.00 0.00 0.00 0.00 0.00 0.00 0.00 0.00 0.00 0.00 0.00 0.00 0.00 0.00 0.00 0.00 0.00 0.00 0.00 0.00 0.00 0.00 0.00 0.00 0.00 0.00 0.00 0.00 0.00 0.00 0.00 0.01
0.00 0.00 0.00 0.00 0.00 0.00 0.00 0.00 0.00 0.00 0.00 0.00 0.00 0.00 0.00 0.00 0.00 0.00 0.00 0.00 0.00 0.00 0.00 0.00 0.00 0.00 0.00 0.00 0.00 0.00 0.00 0.00 0.00 0.00 0.00 0.00 0.00 0.00 0.00 0.00 0.00 0.00 0.00
0.00 0.00 0.00 0.00 0.00 0.00 0.00 0.00 0.00 0.00 0.00 0.00 0.00 0.00 0.00 0.00 0.00 0.00 0.00 0.00 0.00 0.00 0.00 0.00 0.00 0.00 0.00 0.00 0.00 0.00 0.00 0.00 0.01 0.01 0.00 0.00 0.01 0.02 0.01 0.02 0.01 0.00 0.00
0.00 0.00 0.00 0.00 0.00 0.00 0.00 0.00 0.00 0.00 0.00 0.00 0.00 0.00 0.00 0.00 0.00 0.00 0.00 0.00 0.00 0.00 0.00 0.00 0.00 0.00 0.00 0.00 0.00 0.01 0.02 0.02 0.01 0.01 0.00 0.01 0.02 0.02 0.02 0.03 0.03 0.03 0.03
0.00 0.00 0.00 0.00 0.00 0.00 0.00 0.00 0.00 0.00 0.00 0.00 0.00 0.00 0.00 0.00 0.00 0.00 0.00 0.00 0.00 0.00 0.00 0.00 0.00 0.00 0.00 0.00 0.01 0.01 0.01 0.03 0.03 0.01 0.03 0.04 0.04 0.04 0.03 0.04 0.06 0.06 0.04
0.00 0.00 0.00 0.00 0.00 0.00 0.00 0.00 0.00 0.00 0.00 0.00 0.00 0.00 0.00 0.00 0.00 0.00 0.00 0.00 0.00 0.00 0.00 0.00 0.00 0.00 0.00 0.00 0.00 0.00 0.01 0.02 0.03 0.04 0.05 0.07 0.07 0.08 0.08 0.09 0.09 0.07 0.06
0.00 0.00 0.00 0.00 0.00 0.00 0.00 0.00 0.00 0.00 0.00 0.00 0.00 0.00 0.00 0.00 0.00 0.00 0.00 0.00 0.00 0.00 0.00 0.00 0.00 0.00 0.00 0.00 0.00 0.01 0.01 0.02 0.06 0.11 0.08 0.10 0.09 0.09 0.10 0.09 0.10 0.15 0.14
0.00 0.00 0.00 0.00 0.00 0.00 0.00 0.00 0.00 0.00 0.00 0.00 0.00 0.00 0.00 0.00 0.00 0.00 0.00 0.00 0.00 0.00 0.00 0.00 0.00 0.00 0.00 0.00 0.01 0.01 0.01 0.03 0.06 0.12 0.07 0.04 0.06 0.07 0.08 0.11 0.15 0.19 0.21